This is the latest recevied weather packets stored in our database for station/object KU9TRY. If no packets are shown the sender has not sent any weather packets the latest 10 day(s).
| Time | Temp. | Humidity | Pressure | Rain* | Wind** | Luminosity | Snow |
|---|---|---|---|---|---|---|---|
| 1787710410 | 19.44° C | 86% | 1018 hPa | 0 mm | - | 0 W/m² | - |
| 1787710106 | 19.44° C | 85% | 1018.1 hPa | 0 mm | - | 0 W/m² | - |
| 1787709801 | 20° C | 85% | 1017.8 hPa | 0 mm | - | 0 W/m² | - |
| 1787709496 | 20.56° C | 83% | 1017.8 hPa | 0 mm | - | 0 W/m² | - |
| 1787709193 | 20.56° C | 83% | 1017.8 hPa | 0 mm | - | 0 W/m² | - |
| 1787708889 | 20.56° C | 82% | 1017.6 hPa | 0 mm | - | 0 W/m² | - |
| 1787708589 | 20.56° C | 82% | 1017.6 hPa | 0 mm | - | 0 W/m² | - |
| 1787708283 | 20.56° C | 81% | 1017.4 hPa | 0 mm | - | 0 W/m² | - |
| 1787707979 | 20.56° C | 79% | 1017.4 hPa | 0 mm | - | 0 W/m² | - |
| 1787707675 | 20.56° C | 79% | 1017.4 hPa | 0 mm | - | 0 W/m² | - |
| 1787707370 | 20.56° C | 79% | 1017.1 hPa | 0 mm | - | 0 W/m² | - |
| 1787707066 | 21.11° C | 78% | 1017.2 hPa | 0 mm | - | 0 W/m² | - |
| 1787706765 | 21.11° C | 76% | 1017.2 hPa | 0 mm | - | 0 W/m² | - |
| 1787706461 | 21.11° C | 74% | 1017.1 hPa | 0 mm | - | 0 W/m² | - |
| 1787706156 | 21.67° C | 73% | 1016.9 hPa | 0 mm | - | 0 W/m² | - |
| 1787705851 | 21.67° C | 74% | 1016.7 hPa | 0 mm | - | 0 W/m² | - |
| 1787705546 | 22.22° C | 70% | 1016.8 hPa | 0 mm | - | 0 W/m² | - |
| 1787705243 | 22.22° C | 69% | 1016.9 hPa | 0 mm | - | 0 W/m² | - |
| 1787704942 | 22.22° C | 67% | 1016.8 hPa | 0 mm | - | 0 W/m² | - |
| 1787704638 | 22.22° C | 70% | 1016.8 hPa | 0 mm | - | 0 W/m² | - |
| 1787704335 | 22.78° C | 69% | 1016.7 hPa | 0 mm | - | 0 W/m² | - |
| 1787704034 | 22.78° C | 69% | 1016.7 hPa | 0 mm | - | 1 W/m² | - |
| 1787703733 | 23.33° C | 66% | 1016.9 hPa | 0 mm | - | 2 W/m² | - |
| 1787703429 | 23.33° C | 65% | 1017 hPa | 0 mm | - | 4 W/m² | - |
| 1787703124 | 23.89° C | 66% | 1016.7 hPa | 0 mm | - | 7 W/m² | - |
* Rain latest hour (hover to see other rain measurements)
** Current wind speed in m/s (hover to see current wind gust speed)